{"data":{"norad_id":63979,"epoch":"2026-05-24T13:51:27.716832Z","epoch_age_seconds":105560,"freshness":"FRESH","line1":"1 63979U 25099AD  26144.57740413  .00010832  00000+0  40249-3 0  9992","line2":"2 63979  42.9969 104.0582 0000691 260.6393  99.4380 15.27587092 58899","mean_motion":15.27587092,"eccentricity":6.91e-5,"inclination_deg":42.9969,"raan_deg":104.0582,"arg_perigee_deg":260.6393,"mean_anomaly_deg":99.438,"bstar":0.00040249,"rev_number":5889,"period_min":94.266311069353,"perigee_km":482.55375363064,"apogee_km":483.50196661431,"semimajor_km":6861.1648601225,"source":"CELESTRAK","updated_at":"2026-05-25T13:38:20.216857Z"}}